Вернуться в каталог

TITAN 3C TRANSTAGE DEB

АктивенHEO
NORAD 21692·DEBRIS·🇺🇸 United States

Запущен Dec 21, 1965 с Cape Canaveral Space Force Station

Loading…

Ближайшие Пролёты (ближайшие 24 часа)

TLE

УстаревающийSource: Space-Track

Эпоха: Aug 29, 2026, 06:53 UTC

1 21692U 65108AF  26241.28736784  .00000219  00000-0  11098-2 0  9993
2 21692  27.5922 123.0506 6150039 223.1162 346.8786  3.60877574167134

Отслеживайте TITAN 3C TRANSTAGE DEB в реальном времени с AllMySat

Download on the App Store